Content
SEND FEEDBACK

Daily
Averages
Monthly
Summary
Philippines

TANQUE, PHILIPPINES


Home > Asia > Philippines
Elevation: 43 feet     Latitude: 14 34N     Longitude: 120 58E

WEATHER
 
SELECT A DAY
Number of Records: 172,299;   Date Range: 7/1/96 - 7/7/14
 
SHARE

PRINT THIS DATA

[ ← Previous Day ]
WEATHER ALMANAC - APRIL 27, 2013
[ Next Day → ]
[ °C ]   °F
Weather ElementAverageHighLow
Temperature84.7 °F96.8 °F (2:00 pm)73.4 °F (4:00 pm)
Dewpoint74.6 °F77 °F (1:00 am)68 °F (1:00 pm)
Humidity72.4 %100 % (4:00 pm)32 % (2:00 pm)
Barometer29.82 in29.87 in (11:00 pm)29.77 in (2:00 pm)
Wind Speed5.5 mph18.4 mph (4:00 pm)
Wind Gust44.9 mph (4:00 pm)
Weather ElementAverage
Visibility6 mi
Wind DirectionESE (99 °)

Weather ElementTotal
Precipitation---
Cooling Degree Days20.1 (Base 65)
Growing Degree Days35.1 (Base 50)
Averaged from 32 records on April 27, 2013
WEATHER CONDITIONS BREAKOUT
WIND DIRECTION BREAKOUT
WEATHER BY HOUR - APRIL 27, 2013
[ °C ]   °F
Local TimeTemperatureDewpointHumidityBarometerVisibilityWind DirectionWind SpeedGust SpeedPrecipitationEventsConditions
1:00 AM78.8 °F77.0 °F94 %29.83 in5.6 miNE (50°)6.9 mphRainLight Rain
2:00 AM79.0 °F77.0 °F92 %29.83 in6.0 miCalmRainLight Rain
2:00 AM78.8 °F77.0 °F94 %29.83 in5.6 miVariable1.2 mphScattered Clouds
3:00 AM78.8 °F77.0 °F94 %29.80 in5.6 miENE (70°)3.5 mphScattered Clouds
4:00 AM78.8 °F75.2 °F89 %29.80 in5.6 miCalmScattered Clouds
5:00 AM80.0 °F76.0 °F84 %29.82 in6.0 miCalmHaze
5:00 AM80.6 °F75.2 °F84 %29.80 in5.6 miCalmScattered Clouds
6:00 AM80.6 °F77.0 °F89 %29.80 in5.0 miVariable2.3 mphScattered Clouds
7:00 AM84.2 °F77.0 °F79 %29.83 in5.6 miSE (130°)4.6 mphPartly Cloudy
8:00 AM86.0 °F76.0 °F66 %29.85 in12.0 miSE (130°)6.7 mphHaze
8:00 AM86.0 °F77.0 °F74 %29.83 in6.2 miSE (130°)6.9 mphScattered Clouds
9:00 AM87.8 °F77.0 °F70 %29.86 in5.6 miESE (110°)5.8 mphScattered Clouds
10:00 AM89.6 °F73.4 °F59 %29.86 in6.2 miEast (100°)8.1 mphPartly Cloudy
11:00 AM92.0 °F73.0 °F45 %29.86 in6.0 miSE (130°)6.7 mphPartly Cloudy
11:00 AM93.2 °F73.4 °F52 %29.86 in6.2 miSE (130°)8.1 mphPartly Cloudy
12:00 PM95.0 °F69.8 °F44 %29.83 in6.2 miSE (130°)8.1 mphPartly Cloudy
1:00 PM95.0 °F68.0 °F41 %29.80 in6.2 miSE (130°)8.1 mphPartly Cloudy
2:00 PM96.0 °F69.0 °F32 %29.77 in6.0 miEast (100°)6.7 mphScattered Clouds
2:00 PM96.8 °F69.8 °F41 %29.77 in6.2 miEast (100°)6.9 mphPartly Cloudy
3:00 PM93.2 °F75.2 °F56 %29.77 in6.2 miWest (280°)13.8 mphScattered Clouds
3:30 PM82.4 °F77.0 °F84 %29.77 in5.6 miSSW (210°)15.0 mphRainLight Rain Showers
4:00 PM73.4 °F73.4 °F100 %29.77 in3.1 miENE (60°)18.4 mph44.9 mphRainHeavy Rain
5:00 PM84.0 °F74.0 °F65 %29.78 in6.0 miEast (80°)6.7 mphHaze
5:00 PM84.2 °F73.4 °F70 %29.77 in6.2 miEast (80°)6.9 mphScattered Clouds
6:00 PM84.2 °F73.4 °F70 %29.80 in6.2 miVariable2.3 mphMostly Cloudy
7:00 PM80.6 °F77.0 °F89 %29.83 in6.2 miSouth (190°)4.6 mphMostly Cloudy
8:00 PM81.0 °F75.0 °F77 %29.84 in6.0 miSouth (190°)4.5 mphHaze
8:00 PM80.6 °F75.2 °F84 %29.83 in5.6 miSouth (190°)3.5 mphMostly Cloudy
9:00 PM80.6 °F73.4 °F79 %29.83 in5.6 miCalmScattered Clouds
10:00 PM82.4 °F75.2 °F79 %29.86 in5.6 miVariable1.2 mphMostly Cloudy
11:00 PM84.0 °F75.0 °F68 %29.87 in6.0 miSE (130°)4.5 mphHaze
11:00 PM84.2 °F75.2 °F74 %29.86 in5.6 miESE (120°)3.5 mphScattered Clouds
Hourly data recorded from RPLL, located miles away from Tanque, Philippines







STORIES FROM OUR PARTNERS